Weather History for Youngstown, OH

Change the Weather History Date:

Tuesday, January 29, 2013

  Actual Average Record
Temperature  
Mean Temperature 51 °F 26 °F  
Max Temperature 60 °F 33 °F 62 °F (2002)
Min Temperature 41 °F 19 °F -12 °F (1977)
Degree Days  
Heating Degree Days 14 39  
Month to date heating degree days 1046 1137  
Since 1 July heating degree days 3309 3543  
Cooling Degree Days 0 0  
Month to date cooling degree days 0 0  
Year to date cooling degree days 0 0  
Moisture  
Dew Point 49 °F    
Average Humidity 86    
Maximum Humidity 100    
Minimum Humidity 72    
Precipitation  
Precipitation 0.11 in 0.07 in 0.67 in (1975)
Month to date precipitation 1.47 2.40  
Year to date precipitation 1.47 2.40  
Snow  
Snow 0.00 in 0.50 in - ()
Month to date snowfall 11.0 15.6  
Since 1 July snowfall 38.2 35.0  
Snow Depth 0.00 in    
Sea Level Pressure  
Sea Level Pressure 29.92 in    
Wind  
Wind Speed 9 mph (South)    
Max Wind Speed 17 mph    
Max Gust Speed 29 mph    
Visibility 3 miles    
Events Fog , Rain    
T = Trace of Precipitation, MM = Missing Value Source: NWS Daily Summary

Daily Weather History Graph

Daily Weather History Graph

Search for Another Location

Airport:

Trip Planner

Search our weather history database for the weather conditions in past years. The results will help you decide how hot, cold, wet, or windy it might be!

Date:

Astronomy

Jan. 29, 2013 Rise Set
Actual Time 7:36 AM EST 5:35 PM EST
Civil Twilight 7:07 AM EST 6:05 PM EST
Nautical Twilight 6:33 AM EST 6:38 PM EST
Astronomical Twilight 6:01 AM EST 7:10 PM EST
Moon 8:32 PM EST (1/29) 8:30 AM EST (1/29)
Length of Visible Light 10h 58m
Length of Day
9h 59m
Waning Gibbous, 94% of the Moon is Illuminated
Jan 29
Waning Gibbous
Feb 3
Last Quarter
Feb 10
New
Feb 17
First Quarter
Feb 25
Full

Hourly Weather History & Observations

Time (EST) Temp. Windchill Dew Point Humidity Pressure Visibility Wind Dir Wind Speed Gust Speed Precip Events Conditions
12:38 AM 46.4 °F 42.4 °F 44.6 °F 93% 30.02 in 0.2 mi SW 8.1 mph - 0.00 in Fog Light Drizzle
12:51 AM 46.0 °F 41.0 °F 45.0 °F 96% 30.04 in 0.2 mi SW 10.4 mph - 0.00 in Fog Light Drizzle
1:51 AM 46.0 °F 41.9 °F 45.0 °F 96% 30.04 in 0.2 mi WSW 8.1 mph - 0.01 in Fog Light Drizzle
2:30 AM 46.4 °F 44.3 °F 44.6 °F 93% 30.02 in 0.1 mi NW 4.6 mph - 0.00 in Fog Light Drizzle
2:51 AM 44.1 °F 42.5 °F 43.0 °F 96% 30.03 in 0.1 mi North 3.5 mph - 0.00 in Fog Light Drizzle
3:51 AM 41.0 °F 38.0 °F 39.9 °F 96% 30.03 in 0.2 mi East 4.6 mph - 0.00 in Fog Light Drizzle
4:51 AM 43.0 °F - 42.1 °F 97% 30.02 in 0.1 mi Calm Calm - 0.00 in Fog Light Drizzle
5:51 AM 46.0 °F 44.8 °F 45.0 °F 96% 30.01 in 0.1 mi South 3.5 mph - 0.00 in Fog Light Drizzle
6:51 AM 48.0 °F - 46.9 °F 96% 29.99 in 0.2 mi South 6.9 mph - 0.00 in Fog Light Drizzle
7:09 AM 48.2 °F - 46.4 °F 93% 29.98 in 0.2 mi South 5.8 mph - 0.00 in Fog Light Drizzle
7:51 AM 48.2 °F - 48.2 °F 100% 29.97 in 0.2 mi South 8.1 mph - N/A Fog Light Drizzle
8:09 AM 48.2 °F - 46.4 °F 93% 29.97 in 0.1 mi South 6.9 mph - 0.00 in Fog Light Drizzle
8:51 AM 50.0 °F - 48.9 °F 96% 29.99 in 0.2 mi South 8.1 mph - 0.00 in Fog Fog
9:42 AM 51.8 °F - 48.2 °F 88% 29.94 in 0.2 mi South 11.5 mph - N/A   Overcast
9:51 AM 51.8 °F - 50.0 °F 94% 29.94 in 0.2 mi South 10.4 mph - N/A   Overcast
10:06 AM 51.8 °F - 50.0 °F 94% 29.93 in 1.5 mi South 10.4 mph - N/A   Overcast
10:42 AM 51.8 °F - 50.0 °F 94% 29.93 in 1.5 mi SSW 11.5 mph - N/A   Overcast
10:44 AM 51.8 °F - 50.0 °F 94% 29.93 in 2.0 mi SSW 11.5 mph - N/A   Overcast
10:51 AM 52.0 °F - 50.0 °F 93% 29.94 in 2.5 mi SSW 11.5 mph - N/A   Overcast
11:28 AM 55.4 °F - 51.8 °F 88% 29.92 in 5.0 mi SSW 10.4 mph 17.3 mph N/A   Overcast
11:51 AM 55.4 °F - 51.8 °F 88% 29.92 in 6.0 mi SSW 15.0 mph 19.6 mph N/A   Overcast
12:51 PM 55.9 °F - 52.0 °F 87% 29.90 in 6.0 mi SSW 10.4 mph 19.6 mph N/A   Overcast
1:51 PM 55.9 °F - 52.0 °F 87% 29.87 in 4.0 mi South 6.9 mph - 0.01 in Rain Light Rain
2:41 PM 55.4 °F - 53.6 °F 94% 29.87 in 4.0 mi South 4.6 mph - 0.00 in Rain Light Rain
2:51 PM 57.0 °F - 53.1 °F 87% 29.87 in 3.0 mi South 5.8 mph - 0.01 in Rain Light Rain
3:28 PM 57.2 °F - 53.6 °F 88% 29.87 in 2.5 mi SSW 10.4 mph - 0.01 in Rain Light Rain
3:41 PM 57.2 °F - 53.6 °F 88% 29.87 in 3.0 mi SSW 11.5 mph - 0.02 in Rain Light Rain
3:51 PM 57.0 °F - 53.1 °F 87% 29.88 in 3.0 mi South 10.4 mph - 0.02 in Rain Light Rain
4:51 PM 55.9 °F - 53.1 °F 90% 29.86 in 3.0 mi South 8.1 mph - 0.06 in Rain Light Rain
5:51 PM 57.0 °F - 53.1 °F 87% 29.85 in 10.0 mi SSE 9.2 mph - 0.00 in   Overcast
6:51 PM 55.0 °F - 51.1 °F 86% 29.83 in 10.0 mi SE 9.2 mph - N/A   Mostly Cloudy
7:51 PM 57.0 °F - 51.1 °F 81% 29.80 in 10.0 mi SSE 10.4 mph - N/A   Mostly Cloudy
8:51 PM 57.0 °F - 50.0 °F 77% 29.80 in 10.0 mi SSE 10.4 mph - N/A   Overcast
9:51 PM 57.0 °F - 48.9 °F 74% 29.79 in 10.0 mi South 11.5 mph - N/A   Scattered Clouds
10:51 PM 57.9 °F - 48.9 °F 72% 29.74 in 10.0 mi South 16.1 mph 21.9 mph N/A   Mostly Cloudy
11:51 PM 59.0 °F - 48.9 °F 69% 29.71 in 10.0 mi South 11.5 mph - N/A   Mostly Cloudy